Hourly Weather Holopovo

Today, 16 April, Friday

Time Temperature Precipitation Wind Pressure Humidity
00:00 +5°C° 0 mm 5 mps 745 mmHg 85%
01:00 +5°C° 0 mm 5 mps 745 mmHg 86%
02:00 +5°C° 0 mm 5 mps 745 mmHg 87%
03:00 +5°C° 0 mm 5 mps 745 mmHg 88%
04:00 +3°C° 0 mm 5 mps 745 mmHg 89%
05:00 +3°C° 0 mm 5 mps 745 mmHg 90%
06:00 +5°C° 0 mm 5 mps 745 mmHg 88%
07:00 +5°C° 0 mm 5 mps 745 mmHg 86%
08:00 +6°C° 0 mm 5 mps 745 mmHg 83%
09:00 +7°C° 0 mm 5 mps 746 mmHg 80%
10:00 +8°C° 0 mm 5 mps 746 mmHg 77%
11:00 +9°C° 0 mm 5 mps 746 mmHg 73%
12:00 +9°C° 0 mm 5 mps 746 mmHg 71%
13:00 +10°C° 0 mm 5 mps 746 mmHg 68%
14:00 +12°C° 0 mm 5 mps 746 mmHg 66%
15:00 +12°C° 0 mm 5 mps 746 mmHg 67%
16:00 +12°C° 0 mm 5 mps 746 mmHg 68%
17:00 +12°C° 0 mm 5 mps 746 mmHg 69%
18:00 +10°C° 0 mm 5 mps 746 mmHg 71%
19:00 +10°C° 0 mm 5 mps 746 mmHg 73%
20:00 +9°C° 0 mm 5 mps 746 mmHg 75%
21:00 +9°C° 0 mm 5 mps 746 mmHg 77%
22:00 +8°C° 0 mm 5 mps 746 mmHg 79%
23:00 +8°C° 0 mm 5 mps 746 mmHg 81%

Tomorrow, 17 April, Saturday

Time Temperature Precipitation Wind Pressure Humidity
00:00 +7°C° 0 mm 5 mps 746 mmHg 82%
01:00 +7°C° 0 mm 5 mps 746 mmHg 82%
02:00 +7°C° 0 mm 5 mps 746 mmHg 83%
03:00 +6°C° 0 mm 5 mps 747 mmHg 83%
04:00 +6°C° 0 mm 4 mps 747 mmHg 84%
05:00 +6°C° 0 mm 4 mps 747 mmHg 85%
06:00 +6°C° 0 mm 4 mps 747 mmHg 83%
07:00 +6°C° 0 mm 4 mps 747 mmHg 81%
08:00 +7°C° 0 mm 4 mps 747 mmHg 79%
09:00 +8°C° 0 mm 4 mps 748 mmHg 76%
10:00 +10°C° 0 mm 4 mps 748 mmHg 73%
11:00 +11°C° 0 mm 4 mps 748 mmHg 70%
12:00 +12°C° 0 mm 4 mps 748 mmHg 66%
13:00 +12°C° 0 mm 5 mps 747 mmHg 63%
14:00 +13°C° 0 mm 5 mps 747 mmHg 60%
15:00 +13°C° 0 mm 5 mps 747 mmHg 60%
16:00 +13°C° 0 mm 5 mps 747 mmHg 61%
17:00 +13°C° 0 mm 5 mps 747 mmHg 61%
18:00 +10°C° 0 mm 5 mps 747 mmHg 62%
19:00 +9°C° 0 mm 5 mps 747 mmHg 63%
20:00 +8°C° 0 mm 5 mps 747 mmHg 64%
21:00 +8°C° 0 mm 5 mps 747 mmHg 63%
22:00 +7°C° 0 mm 5 mps 747 mmHg 63%
23:00 +6°C° 0 mm 5 mps 747 mmHg 62%

Day after tomorrow, 18 April, Sunday

Time Temperature Precipitation Wind Pressure Humidity
00:00 +6°C° 0 mm 5 mps 747 mmHg 64%
01:00 +5°C° 0 mm 4 mps 747 mmHg 66%
02:00 +4°C° 0 mm 4 mps 747 mmHg 68%
03:00 +4°C° 0 mm 4 mps 747 mmHg 71%
04:00 +4°C° 0 mm 4 mps 747 mmHg 73%
05:00 +3°C° 0 mm 4 mps 747 mmHg 75%
06:00 +4°C° 0 mm 4 mps 747 mmHg 72%
07:00 +5°C° 0 mm 4 mps 747 mmHg 69%
08:00 +6°C° 0 mm 4 mps 747 mmHg 67%
09:00 +7°C° 0 mm 4 mps 747 mmHg 62%
10:00 +8°C° 0 mm 5 mps 747 mmHg 58%
11:00 +9°C° 0 mm 5 mps 747 mmHg 54%
12:00 +10°C° 0 mm 5 mps 747 mmHg 53%
13:00 +10°C° 0 mm 5 mps 747 mmHg 52%
14:00 +10°C° 0 mm 5 mps 747 mmHg 51%
15:00 +10°C° 0 mm 5 mps 747 mmHg 54%
16:00 +10°C° 0 mm 4 mps 748 mmHg 58%
17:00 +8°C° 0 mm 4 mps 748 mmHg 62%
18:00 +8°C° 0 mm 3 mps 748 mmHg 67%
19:00 +7°C° 0 mm 3 mps 748 mmHg 73%
20:00 +6°C° 0 mm 2 mps 748 mmHg 79%
21:00 +6°C° 0 mm 2 mps 748 mmHg 81%
22:00 +5°C° 0 mm 2 mps 748 mmHg 83%
23:00 +5°C° 0 mm 2 mps 749 mmHg 86%

19 April, Monday

Time Temperature Precipitation Wind Pressure Humidity
00:00 +5°C° 0 mm 2 mps 748 mmHg 86%
01:00 +4°C° 0 mm 3 mps 748 mmHg 86%
02:00 +3°C° 0 mm 3 mps 748 mmHg 86%
03:00 +4°C° 0 mm 3 mps 748 mmHg 86%
04:00 +4°C° 0 mm 4 mps 748 mmHg 86%
05:00 +4°C° 0 mm 4 mps 748 mmHg 86%
06:00 +4°C° 0 mm 4 mps 748 mmHg 85%
07:00 +5°C° 0 mm 4 mps 748 mmHg 84%
08:00 +5°C° 0 mm 5 mps 748 mmHg 83%
09:00 +5°C° 0 mm 4 mps 748 mmHg 86%
10:00 +4°C° 0 mm 4 mps 748 mmHg 88%
11:00 +4°C° 0 mm 4 mps 748 mmHg 90%
12:00 +5°C° 0 mm 4 mps 748 mmHg 87%
13:00 +5°C° 0 mm 5 mps 748 mmHg 84%
14:00 +5°C° 0 mm 5 mps 748 mmHg 81%
15:00 +5°C° 0 mm 5 mps 748 mmHg 82%
16:00 +5°C° 0 mm 5 mps 748 mmHg 82%
17:00 +5°C° 0 mm 4 mps 748 mmHg 83%
18:00 +5°C° 0 mm 5 mps 747 mmHg 83%
19:00 +5°C° 0 mm 5 mps 747 mmHg 83%
20:00 +3°C° 0 mm 5 mps 747 mmHg 83%
21:00 +4°C° 0 mm 4 mps 747 mmHg 84%
22:00 +4°C° 0 mm 4 mps 746 mmHg 84%
23:00 +4°C° 0 mm 4 mps 746 mmHg 84%

20 April, Tuesday

Time Temperature Precipitation Wind Pressure Humidity
00:00 +3°C° 0 mm 5 mps 746 mmHg 84%
01:00 +3°C° 0 mm 5 mps 745 mmHg 83%
02:00 +3°C° 0 mm 5 mps 745 mmHg 83%
03:00 +3°C° 0 mm 5 mps 744 mmHg 81%
04:00 +3°C° 0 mm 5 mps 744 mmHg 78%
05:00 +3°C° 0 mm 5 mps 743 mmHg 76%
06:00 +3°C° 0 mm 6 mps 743 mmHg 75%
07:00 +3°C° 0 mm 6 mps 742 mmHg 74%
08:00 +3°C° 0 mm 6 mps 741 mmHg 73%
09:00 +3°C° 0.5 mm 6 mps 741 mmHg 76%
10:00 +3°C° 0.5 mm 6 mps 740 mmHg 79%
11:00 +3°C° 0.5 mm 6 mps 740 mmHg 82%
12:00 +3°C° 1.1 mm 6 mps 739 mmHg 85%
13:00 +3°C° 1.1 mm 7 mps 738 mmHg 87%
14:00 +3°C° 1.1 mm 7 mps 737 mmHg 89%
15:00 +3°C° 1.7 mm 7 mps 736 mmHg 91%
16:00 +3°C° 1.7 mm 7 mps 735 mmHg 92%
17:00 +2°C° 1.7 mm 8 mps 734 mmHg 94%
18:00 +3°C° 1 mm 7 mps 733 mmHg 94%
19:00 +3°C° 1 mm 7 mps 732 mmHg 94%
20:00 +4°C° 1 mm 7 mps 731 mmHg 94%
21:00 +4°C° 2.2 mm 7 mps 731 mmHg 93%
22:00 +4°C° 2.2 mm 7 mps 730 mmHg 93%
23:00 +4°C° 2.2 mm 7 mps 729 mmHg 92%

21 April, Wednesday

Time Temperature Precipitation Wind Pressure Humidity
00:00 +4°C° 0.2 mm 6 mps 729 mmHg 93%
01:00 +5°C° 0.2 mm 6 mps 729 mmHg 94%
02:00 +5°C° 0.2 mm 6 mps 728 mmHg 95%
03:00 +5°C° 0.2 mm 6 mps 728 mmHg 94%
04:00 +5°C° 0.2 mm 6 mps 728 mmHg 93%
05:00 +7°C° 0.2 mm 6 mps 727 mmHg 92%
06:00 +5°C° 0.7 mm 6 mps 727 mmHg 92%
07:00 +4°C° 0.7 mm 6 mps 727 mmHg 93%
08:00 +4°C° 0.7 mm 6 mps 728 mmHg 94%
09:00 +3°C° 0.1 mm 6 mps 728 mmHg 91%
10:00 +3°C° 0.1 mm 6 mps 729 mmHg 87%
11:00 +3°C° 0.1 mm 6 mps 729 mmHg 84%
12:00 +3°C° 0.1 mm 6 mps 730 mmHg 85%
13:00 +3°C° 0.1 mm 7 mps 730 mmHg 86%
14:00 +4°C° 0.1 mm 7 mps 730 mmHg 87%
15:00 +4°C° 0.1 mm 7 mps 731 mmHg 89%
16:00 +3°C° 0.1 mm 6 mps 731 mmHg 90%
17:00 +3°C° 0.1 mm 6 mps 732 mmHg 92%
18:00 +3°C° 0.1 mm 6 mps 732 mmHg 92%
19:00 +3°C° 0.1 mm 6 mps 733 mmHg 92%
20:00 +2°C° 0.1 mm 5 mps 733 mmHg 92%
21:00 +2°C° 0.1 mm 5 mps 734 mmHg 93%
22:00 +2°C° 0.1 mm 5 mps 734 mmHg 94%
23:00 +3°C° 0.1 mm 4 mps 735 mmHg 95%
Show more